Point Mugu NAWC, CA

10:47 AM PST on January 21, 2017 (GMT -0800)
Point Mugu

Weather History for KNTD - November, 2011

Change the Weather History Date:

Thursday, November 17, 2011

  Actual Average Record
Temperature  
Mean Temperature 53 °F -  
Max Temperature 63 °F 66 °F 84 °F (2005)
Min Temperature 43 °F 46 °F 37 °F (2008)
Degree Days  
Heating Degree Days 12    
Growing Degree Days 3 (Base 50)    
Moisture  
Dew Point 50 °F    
Average Humidity 91    
Maximum Humidity 100    
Minimum Humidity 62    
Precipitation  
Precipitation 0.00 in - - ()
Sea Level Pressure  
Sea Level Pressure 30.05 in    
Wind  
Wind Speed 2 mph (NNW)    
Max Wind Speed 9 mph    
Max Gust Speed -    
Visibility 6 miles    
Events      
Averages and records for this station are not official NWS values.
T = Trace of Precipitation, MM = Missing Value Source: NWS Daily Summary

Daily Weather History Graph

Daily Weather History Graph

Search for Another Location

Airport or City:

Trip Planner

Search our weather history database for the weather conditions in past years. The results will help you decide how hot, cold, wet, or windy it might be!

Date:

Astronomy

Nov. 17, 2011 Rise Set
Actual Time 6:30 AM PST 4:51 PM PST
Civil Twilight 6:04 AM PST 5:18 PM PST
Nautical Twilight 5:33 AM PST 5:48 PM PST
Astronomical Twilight 5:04 AM PST 6:18 PM PST
Moon 11:11 PM PST (11/17) 11:47 AM PST (11/17)
Length of Visible Light 11h 14m
Length of Day
10h 20m
Waning Gibbous, 59% of the Moon is Illuminated
Nov 17
Waning Gibbous
Nov 18
Last Quarter
Nov 24
New
Dec 2
First Quarter
Dec 10
Full

Hourly Weather History & Observations

Time (PST) Temp. Windchill Dew Point Humidity Pressure Visibility Wind Dir Wind Speed Gust Speed Precip Events Conditions
12:01 AM 46.4 °F - 46.4 °F 100% 30.12 in 3.0 mi Calm Calm - N/A   Clear
12:24 AM 48.2 °F - 48.2 °F 100% 30.12 in 2.5 mi Calm Calm - N/A   Clear
12:39 AM 46.4 °F - 46.4 °F 100% 30.12 in 1.2 mi Calm Calm - N/A   Clear
12:46 AM 46.4 °F - 44.6 °F 93% 30.12 in 3.0 mi Calm Calm - N/A   Clear
12:54 AM 46.9 °F - 46.0 °F 97% 30.12 in 3.0 mi Calm Calm - N/A   Clear
1:15 AM 46.4 °F - 46.4 °F 100% 30.11 in 2.5 mi Calm Calm - N/A   Clear
1:42 AM 46.4 °F 45.2 °F 46.4 °F 100% 30.10 in 3.0 mi NNE 3.5 mph - N/A   Clear
1:54 AM 46.9 °F - 46.9 °F 100% 30.11 in 4.0 mi NNE 3.5 mph - N/A   Clear
2:54 AM 46.9 °F - 46.9 °F 100% 30.10 in 5.0 mi NE 4.6 mph - N/A   Clear
3:54 AM 46.0 °F 43.9 °F 46.0 °F 100% 30.09 in 6.0 mi NE 4.6 mph - N/A   Clear
4:54 AM 46.9 °F - 44.1 °F 90% 30.09 in 8.0 mi North 3.5 mph - N/A   Clear
5:54 AM 48.0 °F - 45.0 °F 89% 30.09 in 7.0 mi North 5.8 mph - N/A   Clear
6:54 AM 43.0 °F - 42.1 °F 97% 30.10 in 7.0 mi Calm Calm - N/A   Partly Cloudy
7:54 AM 50.0 °F - 46.0 °F 86% 30.10 in 8.0 mi NE 3.5 mph - N/A   Clear
8:54 AM 57.0 °F - 48.9 °F 74% 30.10 in 7.0 mi Calm Calm - N/A   Partly Cloudy
9:54 AM 62.1 °F - 48.9 °F 62% 30.09 in 7.0 mi Calm Calm - N/A   Partly Cloudy
10:54 AM 63.0 °F - 50.0 °F 63% 30.09 in 7.0 mi WSW 5.8 mph - N/A   Partly Cloudy
11:54 AM 62.1 °F - 55.9 °F 80% 30.06 in 7.0 mi West 9.2 mph - N/A   Scattered Clouds
12:54 PM 63.0 °F - 55.0 °F 75% 30.04 in 7.0 mi West 8.1 mph - N/A   Scattered Clouds
1:54 PM 63.0 °F - 54.0 °F 72% 30.01 in 7.0 mi WSW 9.2 mph - N/A   Mostly Cloudy
2:54 PM 62.1 °F - 55.0 °F 78% 30.00 in 7.0 mi West 8.1 mph - N/A   Scattered Clouds
3:54 PM 62.1 °F - 54.0 °F 75% 29.98 in 7.0 mi Calm Calm - N/A   Partly Cloudy
4:54 PM 57.0 °F - 55.0 °F 93% 29.96 in 6.0 mi WNW 4.6 mph - N/A   Partly Cloudy
5:54 PM 55.9 °F - 55.0 °F 97% 29.97 in 6.0 mi WNW 5.8 mph - N/A   Partly Cloudy
6:35 PM 51.8 °F - 51.8 °F 100% 29.97 in 5.0 mi Calm Calm - N/A   Clear
6:54 PM 53.1 °F - 53.1 °F 100% 29.98 in 5.0 mi Calm Calm - N/A   Clear
7:54 PM 51.1 °F - 51.1 °F 100% 29.98 in 5.0 mi Calm Calm - N/A   Clear
8:54 PM 52.0 °F - 52.0 °F 100% 29.99 in 6.0 mi NE 3.5 mph - N/A   Clear
9:54 PM 51.1 °F - 51.1 °F 100% 29.99 in 5.0 mi Calm Calm - N/A   Scattered Clouds
10:54 PM 48.0 °F - 48.0 °F 100% 29.99 in 6.0 mi Calm Calm - N/A   Scattered Clouds
11:09 PM 51.8 °F - 50.0 °F 94% 29.98 in 7.0 mi Calm Calm - N/A   Mostly Cloudy
11:54 PM 57.0 °F - 55.0 °F 93% 29.99 in 9.0 mi South 5.8 mph - N/A   Overcast